Content
SEND FEEDBACK

Daily
Averages
Monthly
Summary
United States of America

DOUGLAS, GEORGIA


Home > North America > United States > Georgia
Elevation: 255 feet     Latitude: 31 29N     Longitude: 082 52W

WEATHER
 
SELECT A DAY
Number of Records: 252,979;   Date Range: 12/1/03 - 9/29/14
 
SHARE

PRINT THIS DATA

[ ← Previous Day ]
WEATHER ALMANAC - JANUARY 31, 2013
[ Next Day → ]
[ °C ]   °F
Weather ElementAverageHighLow
Temperature48 °F55.4 °F (2:35 pm)41 °F (7:15 am)
Dewpoint32 °F46.4 °F (12:35 am)23 °F (4:55 pm)
Humidity55.9 %77 % (12:35 am)30 % (4:55 pm)
Barometer30.13 in30.27 in (11:15 pm)29.89 in (12:35 am)
Wind Speed8.6 mph18.4 mph (4:15 am)
Wind Gust34.5 mph (2:15 am)
Weather ElementAverage
Visibility10 mi
Wind DirectionWSW (239.6 °)

Weather ElementTotal
Precipitation---
Heating Degree Days16.8 (Base 65)
Averaged from 69 records on January 31, 2013
WEATHER CONDITIONS BREAKOUT
WIND DIRECTION BREAKOUT
WEATHER BY HOUR - JANUARY 31, 2013
[ °C ]   °F
Local TimeTemperatureDewpointHumidityBarometerVisibilityWind DirectionWind SpeedGust SpeedPrecipitationEventsConditions
12:35 AM53.6 °F46.4 °F77 %29.89 in10.0 miWest (280°)11.5 mph20.7 mphOvercast
12:55 AM53.6 °F46.4 °F77 %29.90 in10.0 miWest (270°)13.8 mph21.9 mphOvercast
1:15 AM53.6 °F46.4 °F77 %29.91 in10.0 miWNW (290°)10.4 mph20.7 mphOvercast
1:35 AM53.6 °F44.6 °F72 %29.92 in10.0 miWNW (290°)11.5 mph20.7 mphOvercast
1:55 AM53.6 °F42.8 °F67 %29.93 in10.0 miWNW (300°)17.3 mph24.2 mphOvercast
2:15 AM51.8 °F39.2 °F62 %29.94 in10.0 miWNW (300°)15.0 mph34.5 mphMostly Cloudy
2:35 AM51.8 °F35.6 °F54 %29.96 in10.0 miWNW (290°)12.7 mph23.0 mphScattered Clouds
2:55 AM50.0 °F37.4 °F62 %29.97 in10.0 miWNW (300°)11.5 mph23.0 mphScattered Clouds
3:15 AM48.2 °F35.6 °F62 %29.98 in10.0 miWNW (290°)12.7 mph17.3 mphScattered Clouds
3:35 AM48.2 °F35.6 °F62 %30.00 in10.0 miWNW (300°)10.4 mph16.1 mphClear
3:55 AM48.2 °F35.6 °F62 %30.00 in10.0 miWNW (300°)12.7 mph25.3 mphScattered Clouds
4:15 AM46.4 °F33.8 °F62 %30.02 in10.0 miWNW (300°)18.4 mph25.3 mphClear
4:35 AM46.4 °F33.8 °F62 %30.02 in10.0 miWNW (300°)9.2 mph18.4 mphClear
4:55 AM44.6 °F32.0 °F61 %30.03 in10.0 miWNW (300°)12.7 mph17.3 mphClear
5:15 AM44.6 °F32.0 °F61 %30.03 in10.0 miWNW (290°)11.5 mph18.4 mphClear
5:35 AM44.6 °F32.0 °F61 %30.05 in10.0 miWNW (300°)8.1 mph18.4 mphClear
5:55 AM44.6 °F32.0 °F61 %30.05 in10.0 miWNW (290°)9.2 mph17.3 mphClear
6:15 AM42.8 °F32.0 °F66 %30.06 in10.0 miWNW (290°)11.5 mph16.1 mphClear
6:35 AM42.8 °F32.0 °F66 %30.07 in10.0 miWNW (300°)9.2 mphClear
7:15 AM41.0 °F32.0 °F70 %30.08 in10.0 miWest (280°)8.1 mphClear
7:35 AM41.0 °F32.0 °F70 %30.09 in10.0 miCalmClear
7:55 AM41.0 °F32.0 °F70 %30.10 in10.0 miWest (280°)6.9 mphClear
8:15 AM42.8 °F32.0 °F66 %30.11 in10.0 miWNW (290°)9.2 mphClear
8:35 AM42.8 °F32.0 °F66 %30.12 in10.0 miWNW (290°)9.2 mphClear
8:55 AM44.6 °F32.0 °F61 %30.13 in10.0 miWNW (300°)8.1 mph16.1 mphClear
9:15 AM44.6 °F32.0 °F61 %30.14 in10.0 miWNW (290°)11.5 mphClear
9:35 AM44.6 °F32.0 °F61 %30.15 in10.0 miNW (310°)11.5 mph17.3 mphClear
9:55 AM46.4 °F32.0 °F57 %30.15 in10.0 miNW (310°)9.2 mphClear
10:15 AM46.4 °F32.0 °F57 %30.16 in10.0 miWNW (300°)11.5 mphClear
10:35 AM46.4 °F32.0 °F57 %30.17 in10.0 miWNW (290°)10.4 mph17.3 mphClear
10:55 AM48.2 °F32.0 °F54 %30.17 in10.0 miWNW (300°)9.2 mphClear
11:15 AM48.2 °F32.0 °F54 %30.17 in10.0 miWNW (300°)8.1 mph19.6 mphClear
11:35 AM50.0 °F30.2 °F47 %30.17 in10.0 miNW (310°)10.4 mphClear
11:55 AM50.0 °F30.2 °F47 %30.18 in10.0 miWNW (290°)11.5 mphClear
12:15 PM50.0 °F32.0 °F50 %30.17 in10.0 miWNW (290°)8.1 mph18.4 mphClear
12:35 PM51.8 °F32.0 °F47 %30.17 in10.0 miWNW (290°)17.3 mph20.7 mphClear
12:55 PM51.8 °F30.2 °F44 %30.17 in10.0 miWNW (300°)10.4 mph18.4 mphClear
1:15 PM51.8 °F30.2 °F44 %30.16 in10.0 miWest (270°)15.0 mph21.9 mphClear
1:35 PM53.6 °F28.4 °F38 %30.15 in10.0 miWNW (290°)15.0 mph20.7 mphClear
1:55 PM53.6 °F28.4 °F38 %30.15 in10.0 miWNW (290°)13.8 mph19.6 mphClear
2:15 PM53.6 °F28.4 °F38 %30.15 in10.0 miWest (270°)12.7 mph19.6 mphClear
2:35 PM55.4 °F28.4 °F36 %30.15 in10.0 miWNW (290°)13.8 mph20.7 mphClear
2:55 PM55.4 °F26.6 °F33 %30.16 in10.0 miWNW (300°)11.5 mph18.4 mphClear
3:15 PM55.4 °F24.8 °F31 %30.15 in10.0 miWNW (300°)15.0 mph23.0 mphClear
3:35 PM55.4 °F24.8 °F31 %30.16 in10.0 miNW (320°)11.5 mph18.4 mphClear
3:55 PM55.4 °F24.8 °F31 %30.15 in10.0 miNNW (330°)10.4 mph17.3 mphClear
4:15 PM55.4 °F24.8 °F31 %30.16 in10.0 miWNW (300°)12.7 mph20.7 mphClear
4:35 PM55.4 °F24.8 °F31 %30.16 in10.0 miNW (310°)9.2 mphClear
4:55 PM53.6 °F23.0 °F30 %30.16 in10.0 miWNW (290°)9.2 mph17.3 mphClear
5:15 PM53.6 °F24.8 °F33 %30.17 in10.0 miNW (310°)9.2 mphClear
5:35 PM53.6 °F26.6 °F35 %30.17 in10.0 miWNW (290°)6.9 mphClear
5:55 PM51.8 °F26.6 °F38 %30.17 in10.0 miWNW (290°)4.6 mphClear
6:15 PM50.0 °F28.4 °F43 %30.18 in10.0 miCalmClear
6:35 PM50.0 °F28.4 °F43 %30.18 in10.0 miCalmClear
7:15 PM44.6 °F30.2 °F57 %30.19 in10.0 miCalmClear
7:35 PM44.6 °F30.2 °F57 %30.20 in10.0 miCalmClear
7:55 PM42.8 °F30.2 °F61 %30.21 in10.0 miCalmClear
8:15 PM42.8 °F32.0 °F66 %30.22 in10.0 miWSW (240°)3.5 mphClear
8:35 PM42.8 °F32.0 °F66 %30.23 in10.0 miSW (230°)3.5 mphClear
8:55 PM41.0 °F32.0 °F70 %30.23 in10.0 miWSW (240°)4.6 mphClear
9:15 PM42.8 °F32.0 °F66 %30.24 in10.0 miCalmClear
9:35 PM42.8 °F32.0 °F66 %30.25 in10.0 miCalmClear
9:55 PM42.8 °F33.8 °F70 %30.25 in10.0 miCalmClear
10:15 PM42.8 °F33.8 °F70 %30.26 in10.0 miCalmClear
10:35 PM42.8 °F32.0 °F66 %30.26 in10.0 miWest (260°)3.5 mphClear
10:55 PM42.8 °F32.0 °F66 %30.26 in10.0 miCalmClear
11:15 PM42.8 °F32.0 °F66 %30.27 in10.0 miWest (280°)3.5 mphClear
11:35 PM42.8 °F32.0 °F66 %30.26 in10.0 miCalmClear
11:55 PM41.0 °F32.0 °F70 %30.25 in10.0 miSW (230°)3.5 mphClear
Hourly data recorded from KDQH, located miles away from Douglas, Georgia







STORIES FROM OUR PARTNERS